Time,TemperatureF,DewpointF,PressureIn,WindDirection,WindDirectionDegrees,WindSpeedMPH,WindSpeedGustMPH,Humidity,HourlyPrecipIn,Conditions,Clouds,dailyrainin,SoftwareType,DateUTC
2013-05-09 00:01:00,51.5,48.3,29.53,SSE,158,0.0,0.0,89,0.00,,,0.00,WUHU216HW,2013-05-09 04:01:00,
2013-05-09 00:06:00,51.5,48.3,29.53,SSE,158,0.0,0.0,89,0.00,,,0.00,WUHU216HW,2013-05-09 04:06:00,
2013-05-09 00:29:00,50.9,47.8,29.53,SSE,158,0.0,0.0,89,0.00,,,0.00,WUHU216HW,2013-05-09 04:29:00,
2013-05-09 00:35:00,50.9,47.8,29.53,SSE,158,0.0,0.0,89,0.00,,,0.00,WUHU216HW,2013-05-09 04:35:00,
2013-05-09 01:00:00,50.4,47.3,29.53,SSE,158,0.0,0.0,89,0.00,,,0.00,WUHU216HW,2013-05-09 05:00:00,
2013-05-09 01:05:00,50.4,47.3,29.53,SSE,158,0.0,0.0,89,0.00,,,0.00,WUHU216HW,2013-05-09 05:05:00,
2013-05-09 01:30:00,50.0,46.9,29.51,SSE,158,0.0,0.0,89,0.00,,,0.00,WUHU216HW,2013-05-09 05:30:00,
2013-05-09 01:35:00,50.0,46.9,29.51,SSE,158,0.0,0.0,89,0.00,,,0.00,WUHU216HW,2013-05-09 05:35:00,
2013-05-09 02:00:00,50.0,47.2,29.50,SSE,158,0.0,0.0,90,0.00,,,0.00,WUHU216HW,2013-05-09 06:00:00,
2013-05-09 02:05:00,50.0,47.2,29.50,SSE,158,0.0,0.0,90,0.00,,,0.00,WUHU216HW,2013-05-09 06:05:00,
2013-05-09 02:30:00,50.4,47.5,29.50,SSE,158,1.3,1.3,90,0.00,,,0.00,WUHU216HW,2013-05-09 06:30:00,
2013-05-09 02:35:00,50.4,47.5,29.50,SSE,158,1.3,1.3,90,0.00,,,0.00,WUHU216HW,2013-05-09 06:35:00,
2013-05-09 03:00:00,50.4,47.5,29.49,SSE,158,0.7,0.7,90,0.00,,,0.00,WUHU216HW,2013-05-09 07:00:00,
2013-05-09 03:05:00,50.4,47.5,29.49,SSE,158,0.7,0.7,90,0.00,,,0.00,WUHU216HW,2013-05-09 07:05:00,
2013-05-09 03:30:00,50.2,47.6,29.48,SE,135,1.1,1.1,91,0.00,,,0.00,WUHU216HW,2013-05-09 07:30:00,
2013-05-09 03:35:00,50.2,47.6,29.48,SE,135,1.1,1.1,91,0.00,,,0.00,WUHU216HW,2013-05-09 07:35:00,
2013-05-09 03:59:00,50.2,47.6,29.48,SW,225,0.0,0.0,91,0.00,,,0.00,WUHU216HW,2013-05-09 07:59:00,
2013-05-09 04:04:00,50.2,47.6,29.48,SW,225,0.0,0.0,91,0.00,,,0.00,WUHU216HW,2013-05-09 08:04:00,
2013-05-09 16:30:00,75.1,59.8,29.50,WNW,293,4.9,4.9,59,0.00,,,0.00,WUHU216HW,2013-05-09 20:30:00,
2013-05-09 16:35:00,75.2,59.0,29.50,West,270,3.6,6.3,57,0.00,,,0.00,WUHU216HW,2013-05-09 20:35:00,
2013-05-09 16:40:00,75.6,58.8,29.50,West,270,4.5,7.8,56,0.00,,,0.00,WUHU216HW,2013-05-09 20:40:00,
2013-05-09 16:45:00,75.6,58.3,29.50,NW,315,7.6,7.8,55,0.00,,,0.00,WUHU216HW,2013-05-09 20:45:00,
2013-05-09 16:50:00,75.6,58.3,29.50,WNW,293,7.8,7.8,55,0.00,,,0.00,WUHU216HW,2013-05-09 20:50:00,
2013-05-09 16:55:00,75.6,58.3,29.50,WNW,293,7.8,7.8,55,0.00,,,0.00,WUHU216HW,2013-05-09 20:55:00,
2013-05-09 17:00:00,76.1,57.8,29.50,West,270,4.9,4.9,53,0.00,,,0.00,WUHU216HW,2013-05-09 21:00:00,
2013-05-09 17:05:00,76.1,57.8,29.50,West,270,4.9,4.9,53,0.00,,,0.00,WUHU216HW,2013-05-09 21:05:00,
2013-05-09 17:30:00,76.0,58.6,29.50,WNW,293,5.4,5.4,55,0.00,,,0.00,WUHU216HW,2013-05-09 21:30:00,
2013-05-09 17:35:00,76.0,58.6,29.50,WNW,293,5.4,5.4,55,0.00,,,0.00,WUHU216HW,2013-05-09 21:35:00,
2013-05-09 18:00:00,76.1,58.2,29.50,WNW,293,1.6,1.6,54,0.00,,,0.00,WUHU216HW,2013-05-09 22:00:00,
2013-05-09 18:05:00,76.1,58.2,29.50,WNW,293,1.6,1.6,54,0.00,,,0.00,WUHU216HW,2013-05-09 22:05:00,
2013-05-09 18:30:00,72.9,57.2,29.51,WNW,293,2.2,2.2,58,0.00,,,0.00,WUHU216HW,2013-05-09 22:30:00,
2013-05-09 18:35:00,72.9,57.2,29.51,WNW,293,2.2,2.2,58,0.00,,,0.00,WUHU216HW,2013-05-09 22:35:00,
2013-05-09 19:00:00,71.3,58.1,29.53,East,90,2.5,2.5,63,0.00,,,0.00,WUHU216HW,2013-05-09 23:00:00,
2013-05-09 19:05:00,71.3,58.1,29.53,East,90,2.5,2.5,63,0.00,,,0.00,WUHU216HW,2013-05-09 23:05:00,
2013-05-09 19:30:00,69.1,56.0,29.53,NNE,23,0.4,0.4,63,0.00,,,0.00,WUHU216HW,2013-05-09 23:30:00,
2013-05-09 19:35:00,69.1,56.0,29.53,NNE,23,0.4,0.4,63,0.00,,,0.00,WUHU216HW,2013-05-09 23:35:00,
2013-05-09 20:00:00,66.8,55.0,29.53,ESE,113,0.0,0.0,66,0.00,,,0.00,WUHU216HW,2013-05-10 00:00:00,
2013-05-09 20:05:00,66.8,55.0,29.53,ESE,113,0.0,0.0,66,0.00,,,0.00,WUHU216HW,2013-05-10 00:05:00,
2013-05-09 20:30:00,64.6,54.7,29.55,ESE,113,0.0,0.0,70,0.00,,,0.00,WUHU216HW,2013-05-10 00:30:00,
2013-05-09 20:35:00,64.6,54.7,29.55,ESE,113,0.0,0.0,70,0.00,,,0.00,WUHU216HW,2013-05-10 00:35:00,
2013-05-09 21:00:00,62.6,53.8,29.55,ESE,113,1.1,1.1,73,0.00,,,0.00,WUHU216HW,2013-05-10 01:00:00,
2013-05-09 21:05:00,62.6,53.8,29.55,ESE,113,1.1,1.1,73,0.00,,,0.00,WUHU216HW,2013-05-10 01:05:00,
2013-05-09 21:30:00,60.5,52.9,29.57,SSW,203,0.0,0.0,76,0.00,,,0.00,WUHU216HW,2013-05-10 01:30:00,
2013-05-09 21:35:00,60.5,52.9,29.57,SSW,203,0.0,0.0,76,0.00,,,0.00,WUHU216HW,2013-05-10 01:35:00,
2013-05-09 22:00:00,60.5,53.3,29.58,WNW,293,0.0,0.0,77,0.00,,,0.00,WUHU216HW,2013-05-10 02:00:00,
2013-05-09 22:05:00,60.5,53.3,29.58,WNW,293,0.0,0.0,77,0.00,,,0.00,WUHU216HW,2013-05-10 02:05:00,
2013-05-09 22:30:00,59.2,52.7,29.58,WNW,293,0.0,0.0,79,0.00,,,0.00,WUHU216HW,2013-05-10 02:30:00,
2013-05-09 22:35:00,59.2,52.7,29.58,WNW,293,0.0,0.0,79,0.00,,,0.00,WUHU216HW,2013-05-10 02:35:00,
2013-05-09 23:00:00,58.5,52.8,29.57,WNW,293,0.0,0.0,81,0.00,,,0.00,WUHU216HW,2013-05-10 03:00:00,
2013-05-09 23:05:00,58.5,52.8,29.57,WNW,293,0.0,0.0,81,0.00,,,0.00,WUHU216HW,2013-05-10 03:05:00,
2013-05-09 23:30:00,57.8,52.3,29.56,WNW,293,0.0,0.0,82,0.00,,,0.00,WUHU216HW,2013-05-10 03:30:00,
2013-05-09 23:35:00,57.8,52.3,29.56,WNW,293,0.0,0.0,82,0.00,,,0.00,WUHU216HW,2013-05-10 03:35:00,